TimeEST,TemperatureF,Dew PointF,Humidity,Sea Level PressureIn,VisibilityMPH,Wind Direction,Wind SpeedMPH,Gust SpeedMPH,PrecipitationIn,Events,Conditions,WindDirDegrees,DateUTC
12:29 AM,32.0,28.9,88,29.69,2.5,East,10.4,20.7,0.02,Snow,Light Snow,100,2012-12-16 05:29:00
12:55 AM,32.0,28.9,88,29.70,2.5,East,15.0,20.7,0.02,Snow,Light Snow,100,2012-12-16 05:55:00
1:09 AM,32.0,28.9,88,29.67,3.0,East,10.4,19.6,0.00,Snow,Light Snow,100,2012-12-16 06:09:00
1:55 AM,33.1,28.9,85,29.67,7.0,East,10.4,21.9,0.00,,Overcast,100,2012-12-16 06:55:00
2:55 AM,32.0,28.9,88,29.67,6.0,East,13.8,20.7,0.00,,Overcast,100,2012-12-16 07:55:00
3:55 AM,32.0,28.9,88,29.65,10.0,East,10.4,19.6,0.00,,Overcast,100,2012-12-16 08:55:00
4:55 AM,32.0,28.0,85,29.62,10.0,ESE,10.4,19.6,0.00,,Overcast,110,2012-12-16 09:55:00
5:55 AM,32.0,28.0,85,29.62,10.0,East,12.7,19.6,0.00,,Overcast,90,2012-12-16 10:55:00
6:55 AM,32.0,28.0,85,29.61,10.0,East,10.4,-,0.00,,Overcast,90,2012-12-16 11:55:00
7:55 AM,32.0,28.0,85,29.60,9.0,East,10.4,-,0.00,Snow,Light Snow,90,2012-12-16 12:55:00
8:55 AM,32.0,28.9,88,29.59,10.0,East,6.9,-,0.00,,Overcast,90,2012-12-16 13:55:00
9:55 AM,32.0,28.9,88,29.59,5.0,East,9.2,-,0.00,,Overcast,90,2012-12-16 14:55:00
10:31 AM,32.0,30.0,92,29.57,5.0,East,8.1,-,0.01,Rain,Light Freezing Rain,100,2012-12-16 15:31:00
10:55 AM,32.0,30.0,92,29.58,6.0,East,10.4,-,0.01,Rain,Light Freezing Rain,90,2012-12-16 15:55:00
11:19 AM,32.0,30.0,92,29.57,5.0,East,9.2,-,0.00,,Overcast,100,2012-12-16 16:19:00
11:32 AM,32.0,30.0,92,29.57,6.0,East,8.1,-,0.00,,Overcast,90,2012-12-16 16:32:00
11:55 AM,33.1,30.0,89,29.58,6.0,East,4.6,-,0.01,,Overcast,90,2012-12-16 16:55:00
12:55 PM,33.1,30.9,92,29.55,7.0,East,5.8,-,0.01,Rain,Light Rain,90,2012-12-16 17:55:00
1:55 PM,33.1,30.9,92,29.55,3.0,East,4.6,-,0.00,Rain,Light Rain,90,2012-12-16 18:55:00
2:03 PM,33.1,30.9,92,29.53,2.0,East,6.9,-,0.00,Rain,Light Rain,100,2012-12-16 19:03:00
2:12 PM,33.1,30.9,92,29.53,1.5,East,4.6,-,0.00,Rain,Light Rain,100,2012-12-16 19:12:00
2:30 PM,33.1,30.9,92,29.53,0.8,East,3.5,-,0.00,Rain,Light Rain,100,2012-12-16 19:30:00
2:55 PM,33.1,30.9,92,29.55,0.2,East,3.5,-,0.00,Fog-Rain,Light Rain,90,2012-12-16 19:55:00
3:55 PM,33.1,30.9,92,29.55,0.2,East,4.6,-,0.00,Fog-Rain,Light Rain,90,2012-12-16 20:55:00
4:55 PM,33.1,32.0,96,29.55,0.5,East,4.6,-,0.00,Fog-Rain,Light Rain,80,2012-12-16 21:55:00
5:55 PM,33.1,32.0,96,29.56,0.2,East,4.6,-,0.00,Fog-Rain,Light Rain,100,2012-12-16 22:55:00
6:55 PM,33.1,32.0,96,29.56,0.2,East,3.5,-,0.00,Fog-Rain,Light Rain,80,2012-12-16 23:55:00
7:55 PM,33.1,32.0,96,29.56,0.2,East,4.6,-,0.00,Fog-Rain,Light Rain,80,2012-12-17 00:55:00
8:55 PM,33.1,32.0,96,29.56,0.5,East,4.6,-,0.00,Fog-Rain,Light Rain,90,2012-12-17 01:55:00
9:55 PM,34.0,32.0,92,29.57,0.5,ESE,3.5,-,0.00,Fog-Rain,Light Rain,110,2012-12-17 02:55:00
10:55 PM,34.0,32.0,92,29.56,0.5,East,3.5,-,0.00,Fog-Rain,Light Rain,80,2012-12-17 03:55:00
11:55 PM,34.0,32.0,92,29.56,0.8,Calm,Calm,-,0.02,Rain,Light Rain,0,2012-12-17 04:55:00